Location: Newark
(50.0306°N, 2.3272°E)
Time: 14:05:27
(UTC+00:00)

Transit 2A Rocket - Pass Details

Date: 07 December 2019
Orbit: 593 x 910 km, 66.7° (Epoch: 28 January)

Event Time Altitude Azimuth Distance (km) Brightness Sun altitude
Rises 23:35:02 0° 327° (NNW) 2,844 - -62.6°
Reaches altitude 10° 23:37:43 10° 344° (NNW) 1,951 - -62.6°
Maximum altitude 23:41:04 21° 34° (NE) 1,387 - -62.6°
Drops below altitude 10° 23:44:32 10° 85° (E) 2,020 - -62.6°
Sets 23:47:22 0° 101° (E) 2,974 - -62.6°
